RH
93 94 93 95 96 97 97 96 95 95 95 95 96 95 95 94 93 93 93 93 93 93 94 92 89 88 89 92 95 97 95 93
93 96 98 98 97 97 97 97 96 96 95 96 96 96 96 94 94 94 94 93 93 93 95 92 90 90 92 92 96 97 95 93
93 94 95 97 96 93 96 96 97 97 97 96 99 98 97 95 94 94 94 94 94 95 96 94 92 92 92 93 96 98 92 91
92 94 93 94 82 95 97 94 98 98 98 97 99 98 98 88 93 93 94 95 95 96 95 96 96 97 98 95 99 94 87 93
95 92 93 92 81 94 94 97 98 98 97 98 98 92 94 89 92 88 97 94 98 98 99 99 97 96 95 99 98 92 93 97
94 94 92 93 87 90 85 87 91 93 92 96 96 98 96 90 89 92 96 96 97 98 99 98 96 89 87 96 93 92 92 98
94 93 95 89 86 88 93 94 83 83 85 85 89 88 90 92 85 87 89 93 94 96 96 94 93 89 88 90 90 89 86 98
51 87 93 92 93 93 96 96 87 82 80 80 84 85 86 86 86 88 87 87 89 88 90 87 85 89 87 83 86 88 87 93
52 56 60 71 90 96 97 96 90 95 94 85 81 80 86 76 87 85 83 81 87 87 89 87 90 89 88 89 91 89 88 89
59 57 66 72 72 81 92 94 94 95 87 84 85 79 79 88 80 81 85 82 81 85 84 92 85 91 94 94 94 93 91 91
61 62 65 66 68 80 79 78 88 90 95 88 81 78 79 77 89 87 89 93 88 82 89 88 93 96 93 96 96 96 94 93
55 60 62 62 66 68 68 70 68 74 83 94 90 81 77 86 77 83 91 93 96 94 86 95 89 92 82 90 97 96 96 97
56 60 63 61 63 65 64 70 67 70 80 82 78 88 76 75 90 94 93 82 78 94 96 90 96 93 96 95 96 95 95 97
59 59 61 62 62 63 67 70 78 68 72 76 82 80 79 86 84 86 88 94 93 92 96 98 96 92 97 97 97 96 97 97
61 63 63 66 66 65 67 68 69 72 68 66 66 68 72 82 80 78 88 91 96 92 92 96 93 97 88 95 98 97 98 98
62 63 64 58 66 71 77 81 82 76 75 71 71 68 68 73 78 80 85 85 93 96 94 89 95 94 97 85 89 92 95 97
68 65 63 65 68 70 76 80 77 74 74 76 75 73 71 68 76 81 82 88 89 92 95 94 94 93 89 86 86 95 91 95
70 68 68 68 70 72 76 78 77 77 76 78 79 78 76 76 76 82 85 81 91 93 93 93 87 82 82 85 83 81 82 96
64 71 71 70 73 73 70 72 73 75 75 76 77 80 82 82 82 83 83 83 82 89 94 92 90 88 81 83 83 78 80 78
75 73 73 73 75 76 73 72 75 74 74 74 76 77 76 78 83 83 82 82 82 84 86 91 90 91 90 90 83 86 87 86
Wind_Speed
8 8 9 11 12 11 11 11 12 13 12 13 12 12 12 12 12 11 11 10 9 9 8 8 8 7 6 4 3 3 3 4
9 8 6 6 5 8 10 10 11 12 12 12 11 11 11 11 11 11 11 10 9 8 7 8 8 7 6 5 4 2 1 4
9 10 9 7 6 6 8 10 9 10 10 11 9 6 7 9 10 11 11 10 9 8 8 8 8 8 7 7 4 3 3 3
10 10 11 10 7 7 6 6 4 5 6 8 6 7 7 9 9 12 13 11 9 9 9 10 7 4 4 7 3 4 3 4
7 10 10 11 8 7 5 3 3 4 7 7 6 6 7 6 5 7 5 9 4 5 5 4 6 5 4 4 5 5 3 3
8 8 9 8 6 6 7 6 6 5 6 9 6 4 5 7 5 7 7 5 7 7 5 6 6 8 6 6 6 5 4 4
9 9 7 6 6 4 6 6 8 8 7 8 8 6 6 5 6 7 8 7 7 6 7 7 8 8 7 7 7 6 6 4
8 2 4 0 3 4 4 4 8 8 8 8 10 7 6 7 6 7 8 8 8 8 8 8 8 7 7 7 7 6 6 6
9 8 8 9 3 2 2 6 6 5 4 8 12 11 8 9 6 6 8 9 9 8 7 6 5 5 7 5 5 6 6 6
10 9 8 7 6 2 4 5 10 5 10 8 11 13 10 6 8 8 6 8 9 9 8 6 6 7 4 5 5 5 6 7
11 11 11 9 7 5 5 4 5 5 4 6 11 11 10 10 6 6 6 5 7 9 7 6 5 4 5 5 4 4 5 5
11 10 13 12 8 7 6 6 6 6 6 5 8 9 11 9 9 8 6 5 5 6 9 4 5 6 5 5 5 5 5 5
12 13 12 9 8 8 9 7 7 6 4 6 8 8 14 13 9 6 9 10 11 7 5 9 3 6 4 1 0 3 4 4
12 12 12 9 8 7 6 8 4 8 6 6 7 8 12 10 10 11 12 9 8 11 8 4 4 9 5 3 3 2 3 4
11 10 9 8 11 8 9 9 8 7 10 10 10 13 12 12 13 13 11 7 6 10 9 9 9 5 9 6 3 6 3 3
12 11 9 10 12 10 10 6 8 8 10 10 13 14 14 12 12 14 12 11 11 9 9 9 6 9 2 5 3 6 5 1
10 10 10 11 11 11 9 10 8 8 8 14 15 14 14 13 12 13 14 8 11 14 13 12 8 8 9 9 7 3 2 3
10 11 9 11 10 10 10 12 13 12 12 11 10 11 13 12 12 11 13 12 11 11 12 11 11 11 8 8 11 12 11 4
10 10 10 10 11 11 11 12 13 14 13 11 15 12 11 14 12 12 11 15 12 12 13 14 13 13 13 10 9 10 6 7
8 10 11 12 12 12 11 12 9 11 12 12 12 13 14 16 16 15 15 15 16 13 12 11 13 13 16 12 10 9 6 5
Wind_Direction
136 139 152 159 164 168 168 167 169 167 169 170 172 171 170 174 177 181 184 186 182 184 177 183 184 188 189 190 166 183 132 144
150 146 140 153 170 170 170 173 174 171 172 172 170 175 176 180 179 186 188 190 191 186 178 187 186 189 196 198 186 150 195 186
157 154 157 160 163 180 176 177 171 170 172 173 167 173 184 183 186 191 192 194 195 188 176 187 188 191 198 203 181 179 206 198
167 163 166 161 172 163 176 181 168 172 167 179 176 175 179 188 187 191 196 195 188 187 190 182 181 189 207 203 175 194 198 174
162 166 169 165 174 165 173 173 164 188 180 183 191 184 184 192 189 196 187 193 183 185 186 186 182 197 204 185 191 188 168 168
156 158 168 172 171 167 173 169 180 188 200 180 194 197 188 192 189 187 181 180 185 182 184 191 200 203 201 187 195 193 147 167
174 169 173 182 188 162 179 189 187 186 192 198 188 205 202 182 190 190 186 180 189 186 184 191 203 211 210 182 186 195 169 151
45 50 63 35 233 255 246 219 207 188 189 204 198 194 206 204 195 185 189 185 186 192 189 195 201 196 214 186 181 175 182 143
66 69 44 41 5 8 303 296 263 200 186 218 206 202 196 209 199 200 191 190 184 192 195 191 184 188 201 196 171 177 169 168
50 54 51 49 50 55 309 234 252 227 225 194 199 203 206 198 209 208 188 189 187 192 196 191 192 179 181 194 183 182 174 177
51 35 28 22 14 340 301 275 273 289 256 216 219 204 206 213 210 211 186 169 192 190 194 179 178 175 175 179 189 187 189 177
43 40 29 14 4 359 355 351 355 338 303 224 213 230 218 207 217 214 199 183 178 190 191 185 179 169 170 181 187 193 183 186
41 34 23 27 7 355 347 336 324 316 313 311 320 276 224 206 209 214 222 217 208 176 170 185 174 165 118 123 306 219 204 198
47 39 22 14 16 355 349 343 331 318 317 323 295 284 290 235 221 212 208 209 225 190 170 160 177 170 151 135 172 310 239 195
52 39 23 24 11 358 352 338 339 342 339 333 336 332 326 321 257 224 225 205 215 239 205 167 202 191 174 146 150 212 148 188
51 37 26 20 13 3 355 340 326 323 317 314 316 315 314 315 311 278 229 220 204 189 251 210 180 196 157 198 161 148 166 188
45 36 26 15 8 359 347 333 320 314 311 311 313 308 307 307 310 314 268 230 210 197 202 204 198 197 206 195 205 157 173 138
38 27 18 6 359 348 344 333 322 316 312 304 298 301 303 301 298 299 303 251 213 202 201 206 202 221 210 215 208 204 212 170
25 17 360 355 347 338 329 321 313 300 300 300 299 297 291 293 296 292 293 288 235 206 197 205 201 205 218 206 213 222 212 204
25 11 353 350 342 329 322 316 304 298 292 288 284 282 283 288 286 282 285 285 268 228 222 212 207 206 202 210 215 211 200 189